Starlink 5737

operational
NORAD ID: 55570 Int'l Des: 2023-020 Owner: SPXS Country: US Constellation: starlink
LEOCIRCULAR

Starlink 5737について

説明を読み込み中...

リアルタイム位置

3D地球を読み込み中...

次回通過

高度履歴

Altitude vs Time

uPlot chart will show altitude changes over time

軌道要素

1 55570U 23020B 25305.51315721 -.00000678 00000-0 -35115-4 0 9991
2 55570 43.0033 341.5104 0001060 275.6715 84.4007 15.02529699149639
Epoch: Nov 1, 2025 • Age: 14 hours

現在のステータス

高度 570.0 km
速度 7.58 km/s
衛星直下点 -38.64°S, 142.71°E
打ち上げ日 Feb 12, 2023
運用期間 2.7 years
タイプ internet

技術仕様

分類 Payload
質量 305.00 kg
乾燥質量 290.00 kg
総質量 305.00 kg
長さ 0.20 m
直径 2.80 m
スパン 9.00 m
形状 Box + pan
製造者 SPXS
バスタイプ Starlink
フェーズステータス In Orbit
所有者/国 SPXS/US

大規模コンステレーション

Loading constellations...